Time,TemperatureF,DewpointF,PressureIn,WindDirection,WindDirectionDegrees,WindSpeedMPH,WindSpeedGustMPH,Humidity,HourlyPrecipIn,Conditions,Clouds,dailyrainin,SolarRadiationWatts/m^2,SoftwareType,DateUTC
2013-08-26 00:02:00,65.0,39.0,-100.00,NE,48,0.0,20.0,39,0.00,,,0.00,0.000000,,2013-08-26 07:02:00,
2013-08-26 00:11:00,65.0,39.0,-100.00,NE,48,0.0,20.0,39,0.00,,,0.00,0.000000,,2013-08-26 07:11:00,
2013-08-26 00:21:00,65.0,39.0,-100.00,NE,48,0.0,20.0,39,0.00,,,0.00,0.000000,,2013-08-26 07:21:00,
2013-08-26 00:52:00,63.0,40.0,-100.00,South,183,4.0,7.0,42,0.00,,,0.00,0.000000,,2013-08-26 07:52:00,
2013-08-26 01:02:00,63.0,40.0,-100.00,South,183,4.0,7.0,42,0.00,,,0.00,0.000000,,2013-08-26 08:02:00,
2013-08-26 01:11:00,63.0,40.0,-100.00,South,183,4.0,7.0,42,0.00,,,0.00,0.000000,,2013-08-26 08:11:00,
2013-08-26 01:22:00,63.0,40.0,-100.00,South,183,4.0,7.0,42,0.00,,,0.00,0.000000,,2013-08-26 08:22:00,
2013-08-26 01:52:00,62.0,39.0,-100.00,NNW,334,2.0,6.0,42,0.00,,,0.00,0.000000,,2013-08-26 08:52:00,
2013-08-26 02:02:00,62.0,39.0,-100.00,NNW,334,2.0,6.0,42,0.00,,,0.00,0.000000,,2013-08-26 09:02:00,
2013-08-26 02:11:00,62.0,39.0,-100.00,NNW,334,2.0,6.0,42,0.00,,,0.00,0.000000,,2013-08-26 09:11:00,
2013-08-26 02:21:00,62.0,39.0,-100.00,NNW,334,2.0,6.0,42,0.00,,,0.00,0.000000,,2013-08-26 09:21:00,
2013-08-26 03:12:00,57.0,41.0,-100.00,SE,124,0.0,5.0,54,0.00,,,0.00,0.000000,,2013-08-26 10:12:00,
2013-08-26 03:22:00,57.0,41.0,-100.00,SE,124,0.0,5.0,54,0.00,,,0.00,0.000000,,2013-08-26 10:22:00,
2013-08-26 03:52:00,59.0,35.0,-100.00,NNE,15,0.0,6.0,41,-99.99,,,0.00,0.000000,,2013-08-26 10:52:00,
2013-08-26 04:02:00,59.0,35.0,-100.00,NNE,15,0.0,6.0,41,-99.99,,,0.00,0.000000,,2013-08-26 11:02:00,
2013-08-26 04:12:00,59.0,35.0,-100.00,NNE,15,0.0,6.0,41,-99.99,,,0.00,0.000000,,2013-08-26 11:12:00,
2013-08-26 04:22:00,59.0,35.0,-100.00,NNE,15,0.0,6.0,41,-99.99,,,0.00,0.000000,,2013-08-26 11:22:00,
2013-08-26 04:52:00,60.0,37.0,-100.00,North,350,1.0,4.0,43,0.00,,,0.00,0.000000,,2013-08-26 11:52:00,
2013-08-26 05:01:00,60.0,37.0,-100.00,North,350,1.0,4.0,43,0.00,,,0.00,0.000000,,2013-08-26 12:01:00,
2013-08-26 05:12:00,60.0,37.0,-100.00,North,350,1.0,4.0,43,0.00,,,0.00,0.000000,,2013-08-26 12:12:00,
2013-08-26 05:21:00,60.0,37.0,-100.00,North,350,1.0,4.0,43,0.00,,,0.00,0.000000,,2013-08-26 12:21:00,
2013-08-26 05:52:00,57.0,38.0,-100.00,North,9,0.0,0.0,49,0.00,,,0.00,0.000000,,2013-08-26 12:52:00,
2013-08-26 06:02:00,57.0,38.0,-100.00,North,9,0.0,0.0,49,0.00,,,0.00,0.000000,,2013-08-26 13:02:00,
2013-08-26 06:11:00,57.0,38.0,-100.00,North,9,0.0,0.0,49,0.00,,,0.00,0.000000,,2013-08-26 13:11:00,
2013-08-26 06:52:00,57.0,38.0,-100.00,NNW,327,0.0,5.0,48,0.00,,,0.00,0.000000,,2013-08-26 13:52:00,
2013-08-26 07:02:00,57.0,38.0,-100.00,NNW,327,0.0,5.0,48,0.00,,,0.00,0.000000,,2013-08-26 14:02:00,
2013-08-26 07:11:00,57.0,38.0,-100.00,NNW,327,0.0,5.0,48,0.00,,,0.00,0.000000,,2013-08-26 14:11:00,
2013-08-26 07:22:00,57.0,38.0,-100.00,NNW,327,0.0,5.0,48,0.00,,,0.00,0.000000,,2013-08-26 14:22:00,
2013-08-26 07:52:00,65.0,42.0,-100.00,ENE,69,0.0,4.0,43,0.00,,,0.00,49.000000,,2013-08-26 14:52:00,
2013-08-26 08:01:00,65.0,42.0,-100.00,ENE,69,0.0,4.0,43,0.00,,,0.00,49.000000,,2013-08-26 15:01:00,
2013-08-26 08:12:00,65.0,42.0,-100.00,ENE,69,0.0,4.0,43,0.00,,,0.00,49.000000,,2013-08-26 15:12:00,
2013-08-26 08:22:00,65.0,42.0,-100.00,ENE,69,0.0,4.0,43,0.00,,,0.00,49.000000,,2013-08-26 15:22:00,
2013-08-26 09:59:00,72.0,46.0,-100.00,ESE,107,7.0,11.0,40,-99.99,,,0.00,526.000000,,2013-08-26 16:59:00,
2013-08-26 10:06:00,72.0,46.0,-100.00,ESE,107,7.0,11.0,40,-99.99,,,0.00,526.000000,,2013-08-26 17:06:00,
2013-08-26 10:12:00,72.0,46.0,-100.00,ESE,107,7.0,11.0,40,-99.99,,,0.00,526.000000,,2013-08-26 17:12:00,
2013-08-26 10:24:00,72.0,46.0,-100.00,ESE,107,7.0,11.0,40,-99.99,,,0.00,526.000000,,2013-08-26 17:24:00,
2013-08-26 10:53:00,73.0,47.0,-100.00,East,93,8.0,13.0,39,0.00,,,0.00,737.000000,,2013-08-26 17:53:00,
2013-08-26 11:01:00,73.0,47.0,-100.00,East,93,8.0,13.0,39,0.00,,,0.00,737.000000,,2013-08-26 18:01:00,
2013-08-26 11:12:00,73.0,47.0,-100.00,East,93,8.0,13.0,39,0.00,,,0.00,737.000000,,2013-08-26 18:12:00,
2013-08-26 11:21:00,73.0,47.0,-100.00,East,93,8.0,13.0,39,0.00,,,0.00,737.000000,,2013-08-26 18:21:00,
2013-08-26 11:52:00,77.0,42.0,-100.00,East,98,7.0,16.0,29,0.00,,,0.00,908.000000,,2013-08-26 18:52:00,
2013-08-26 12:01:00,77.0,42.0,-100.00,East,98,7.0,16.0,29,0.00,,,0.00,908.000000,,2013-08-26 19:01:00,
2013-08-26 12:11:00,77.0,42.0,-100.00,East,98,7.0,16.0,29,0.00,,,0.00,908.000000,,2013-08-26 19:11:00,
2013-08-26 12:22:00,77.0,42.0,-100.00,East,98,7.0,16.0,29,0.00,,,0.00,908.000000,,2013-08-26 19:22:00,
2013-08-26 12:52:00,79.0,47.0,-100.00,East,98,11.0,18.0,32,0.00,,,0.00,1014.000000,,2013-08-26 19:52:00,
2013-08-26 13:02:00,79.0,47.0,-100.00,East,98,11.0,18.0,32,0.00,,,0.00,1014.000000,,2013-08-26 20:02:00,
2013-08-26 13:11:00,79.0,47.0,-100.00,East,98,11.0,18.0,32,0.00,,,0.00,1014.000000,,2013-08-26 20:11:00,
2013-08-26 13:21:00,79.0,47.0,-100.00,East,98,11.0,18.0,32,0.00,,,0.00,1014.000000,,2013-08-26 20:21:00,
2013-08-26 13:52:00,79.0,47.0,-100.00,East,97,10.0,21.0,32,0.00,,,-99.99,1056.000000,,2013-08-26 20:52:00,
2013-08-26 14:01:00,79.0,47.0,-100.00,East,97,10.0,21.0,32,0.00,,,-99.99,1056.000000,,2013-08-26 21:01:00,
2013-08-26 14:11:00,79.0,47.0,-100.00,East,97,10.0,21.0,32,0.00,,,-99.99,1056.000000,,2013-08-26 21:11:00,
2013-08-26 14:22:00,79.0,47.0,-100.00,East,97,10.0,21.0,32,0.00,,,-99.99,1056.000000,,2013-08-26 21:22:00,
2013-08-26 14:25:00,80.0,45.0,-100.00,East,100,7.0,23.0,29,0.00,,,0.00,1041.000000,,2013-08-26 21:25:00,
2013-08-26 14:55:00,80.0,45.0,-100.00,East,100,7.0,23.0,29,0.00,,,0.00,1041.000000,,2013-08-26 21:55:00,
2013-08-26 15:07:00,80.0,45.0,-100.00,East,100,7.0,23.0,29,0.00,,,0.00,1041.000000,,2013-08-26 22:07:00,
2013-08-26 15:16:00,80.0,45.0,-100.00,East,100,7.0,23.0,29,0.00,,,0.00,1041.000000,,2013-08-26 22:16:00,
2013-08-26 15:53:00,81.0,50.0,-100.00,East,83,9.0,19.0,34,0.00,,,0.00,974.000000,,2013-08-26 22:53:00,
2013-08-26 16:03:00,81.0,50.0,-100.00,East,83,9.0,19.0,34,0.00,,,0.00,974.000000,,2013-08-26 23:03:00,
2013-08-26 16:12:00,81.0,50.0,-100.00,East,83,9.0,19.0,34,0.00,,,0.00,974.000000,,2013-08-26 23:12:00,
2013-08-26 16:21:00,81.0,50.0,-100.00,East,83,9.0,19.0,34,0.00,,,0.00,974.000000,,2013-08-26 23:21:00,
2013-08-26 16:52:00,78.0,50.0,-100.00,East,90,15.0,22.0,38,0.00,,,0.00,747.000000,,2013-08-26 23:52:00,
2013-08-26 17:01:00,78.0,50.0,-100.00,East,90,15.0,22.0,38,0.00,,,0.00,747.000000,,2013-08-27 00:01:00,
2013-08-26 17:11:00,78.0,50.0,-100.00,East,90,15.0,22.0,38,0.00,,,0.00,747.000000,,2013-08-27 00:11:00,
2013-08-26 17:21:00,78.0,50.0,-100.00,East,90,15.0,22.0,38,0.00,,,0.00,747.000000,,2013-08-27 00:21:00,
2013-08-26 17:52:00,76.0,56.0,-100.00,NE,46,12.0,23.0,50,0.00,,,0.00,456.000000,,2013-08-27 00:52:00,
2013-08-26 18:01:00,76.0,56.0,-100.00,NE,46,12.0,23.0,50,0.00,,,0.00,456.000000,,2013-08-27 01:01:00,
2013-08-26 18:12:00,76.0,56.0,-100.00,NE,46,12.0,23.0,50,0.00,,,0.00,456.000000,,2013-08-27 01:12:00,
2013-08-26 18:21:00,76.0,56.0,-100.00,NE,46,12.0,23.0,50,0.00,,,0.00,456.000000,,2013-08-27 01:21:00,
2013-08-26 18:52:00,71.0,52.0,-100.00,East,85,8.0,19.0,51,0.00,,,0.00,308.000000,,2013-08-27 01:52:00,
2013-08-26 19:02:00,71.0,52.0,-100.00,East,85,8.0,19.0,51,0.00,,,0.00,308.000000,,2013-08-27 02:02:00,
2013-08-26 19:12:00,71.0,52.0,-100.00,East,85,8.0,19.0,51,0.00,,,0.00,308.000000,,2013-08-27 02:12:00,
2013-08-26 19:21:00,71.0,52.0,-100.00,East,85,8.0,19.0,51,0.00,,,0.00,308.000000,,2013-08-27 02:21:00,
2013-08-26 19:52:00,70.0,53.0,-100.00,NNE,26,5.0,12.0,55,0.00,,,0.00,36.000000,,2013-08-27 02:52:00,
2013-08-26 20:02:00,70.0,53.0,-100.00,NNE,26,5.0,12.0,55,0.00,,,0.00,36.000000,,2013-08-27 03:02:00,
2013-08-26 20:12:00,70.0,53.0,-100.00,NNE,26,5.0,12.0,55,0.00,,,0.00,36.000000,,2013-08-27 03:12:00,
2013-08-26 20:22:00,70.0,53.0,-100.00,NNE,26,5.0,12.0,55,0.00,,,0.00,36.000000,,2013-08-27 03:22:00,
2013-08-26 20:25:00,67.0,54.0,-100.00,NE,43,4.0,9.0,63,0.00,,,0.00,0.000000,,2013-08-27 03:25:00,
2013-08-26 20:58:00,67.0,54.0,-100.00,NE,43,4.0,9.0,63,0.00,,,0.00,0.000000,,2013-08-27 03:58:00,
2013-08-26 21:08:00,67.0,54.0,-100.00,NE,43,4.0,9.0,63,0.00,,,0.00,0.000000,,2013-08-27 04:08:00,
2013-08-26 21:18:00,67.0,54.0,-100.00,NE,43,4.0,9.0,63,0.00,,,0.00,0.000000,,2013-08-27 04:18:00,
2013-08-26 21:54:00,64.0,54.0,-100.00,NNE,29,1.0,6.0,69,0.00,,,0.00,0.000000,,2013-08-27 04:54:00,
2013-08-26 22:05:00,64.0,54.0,-100.00,NNE,29,1.0,6.0,69,0.00,,,0.00,0.000000,,2013-08-27 05:05:00,
2013-08-26 22:13:00,64.0,54.0,-100.00,NNE,29,1.0,6.0,69,0.00,,,0.00,0.000000,,2013-08-27 05:13:00,
2013-08-26 22:23:00,64.0,54.0,-100.00,NNE,29,1.0,6.0,69,0.00,,,0.00,0.000000,,2013-08-27 05:23:00,
2013-08-26 22:52:00,63.0,53.0,-100.00,NNE,20,0.0,5.0,71,0.00,,,0.00,0.000000,,2013-08-27 05:52:00,
2013-08-26 23:02:00,63.0,53.0,-100.00,NNE,20,0.0,5.0,71,0.00,,,0.00,0.000000,,2013-08-27 06:02:00,
2013-08-26 23:12:00,63.0,53.0,-100.00,NNE,20,0.0,5.0,71,0.00,,,0.00,0.000000,,2013-08-27 06:12:00,
2013-08-26 23:21:00,63.0,53.0,-100.00,NNE,20,0.0,5.0,71,0.00,,,0.00,0.000000,,2013-08-27 06:21:00,
2013-08-26 23:52:00,63.0,53.0,-100.00,ENE,67,0.0,4.0,70,0.00,,,0.00,0.000000,,2013-08-27 06:52:00,